Weather in Isakovo

Russia / Smolensk Oblast     55°10′28″N   34°39′17″E
temp.,
°C
wind,
m/s
gust,
m/s
humid.,
%
clouds,
%
prec.,
mm/h
press.,
hPa
HPBL,
m
19 april, mon
mon1900:00+4ene259113 0.0 102292
03:00+4ne41287100 0.0 1022487
06:00+6ene41082100 0.0 1022561
09:00+7ene4982100 0.0 1022949
12:00+6ene5985100 0.1 1023953
15:00+7ene4978100 0.1 1023847
18:00+8ene5875100 0.0 1022961
21:00+6e4988100 0.1 1023922
20 april, tue
tue2000:00+4ene5987100 0.1 1022763
03:00+3ene51195100 0.2 1021638
06:00+2ene51096100 0.4 1020517
09:00+2ene51298100 1.8 1019470
12:00+2e51297100 1.9 1018557
15:00+3e41196100 3.0 1017657
18:00+4ene5992100 0.0 1015622
21:00+2ene41097100 0.0 1013553
21 april, wed
wed2100:00+2ne51098100 0.4 1009486
03:000n51199100 4.2 1005362
06:000nnw51099100 3.6 1002329
09:00+1nw4799100 5.6 1001251
12:00+2wnw51098100 0.3 1002602
15:00+3w51195100 0.4 1005890
18:00+5wsw51089100 0.0 1007776
21:00+3sw3895100 0.1 1009372
22 april, thu
thu2200:00+2ssw489796 0.1 1011281
03:00+1ssw2698100 0.1 1012124
06:00+1ssw249986 0.0 1013114
09:00+6ssw35825 0.0 1014405
12:00+9ssw456642 0.0 10141128
15:00+11s576484 0.1 10131553
18:00+11s597510 0.4 1014655
21:00+7s3109358 0.9 1015195
23 april, fri
fri2300:00+5s369414 0.1 1015109
03:00+5sse389698 0.1 1014150
06:00+5s3898100 0.1 1014248
09:00+8s4993100 0.3 1014459
12:00+13s7147369 0.4 10121629
15:00+10wsw6108698 1.4 1012719
18:00+5w3790100 0.4 1014533
21:00+5w1389100 0.5 1014239